This is the latest recevied weather packets stored in our database for station/object KI5NXU. If no packets are shown the sender has not sent any weather packets the latest 10 day(s).
| Time | Temp. | Humidity | Pressure | Rain* | Wind** | Luminosity | Snow |
|---|---|---|---|---|---|---|---|
| 1777984037 | 21.67° C | 81% | 1003 hPa | 0 mm | - | 40 W/m² | - |
| 1777983734 | 21.67° C | 81% | 1002.8 hPa | 0 mm | - | 34 W/m² | - |
| 1777983430 | 21.67° C | 81% | 1003 hPa | 0 mm | - | 25 W/m² | - |
| 1777983127 | 22.22° C | 80% | 1003 hPa | 0 mm | - | 20 W/m² | - |
| 1777982823 | 21.67° C | 80% | 1002.6 hPa | 0 mm | - | 17 W/m² | - |
| 1777982519 | 21.67° C | 81% | 1002.6 hPa | 0 mm | - | 12 W/m² | - |
| 1777982213 | 21.67° C | 81% | 1002.7 hPa | 0 mm | - | 7 W/m² | - |
| 1777981911 | 22.22° C | 80% | 1002.7 hPa | 0 mm | - | 4 W/m² | - |
| 1777981608 | 22.22° C | 80% | 1002.5 hPa | 0 mm | - | 1 W/m² | - |
| 1777981304 | 22.22° C | 80% | 1002.4 hPa | 0 mm | - | 0 W/m² | - |
| 1777981001 | 22.22° C | 80% | 1002.3 hPa | 0 mm | - | 0 W/m² | - |
| 1777980697 | 22.22° C | 79% | 1002.5 hPa | 0 mm | - | 0 W/m² | - |
| 1777980393 | 22.22° C | 79% | 1002.2 hPa | 0 mm | - | 0 W/m² | - |
| 1777980092 | 22.22° C | 80% | 1002.4 hPa | 0 mm | - | 0 W/m² | - |
| 1777979785 | 22.22° C | 79% | 1002.3 hPa | 0 mm | - | 0 W/m² | - |
| 1777979481 | 22.22° C | 79% | 1002.4 hPa | 0 mm | - | 0 W/m² | - |
| 1777979178 | 22.78° C | 78% | 1002.2 hPa | 0 mm | - | 0 W/m² | - |
| 1777978875 | 22.78° C | 78% | 1002.2 hPa | 0 mm | - | 0 W/m² | - |
| 1777978572 | 22.78° C | 78% | 1002.3 hPa | 0 mm | - | 0 W/m² | - |
| 1777978267 | 22.78° C | 79% | 1002.4 hPa | 0 mm | - | 0 W/m² | - |
| 1777977965 | 22.78° C | 79% | 1002.4 hPa | 0 mm | - | 0 W/m² | - |
| 1777977662 | 22.78° C | 79% | 1002.1 hPa | 0 mm | - | 0 W/m² | - |
| 1777977358 | 22.78° C | 79% | 1002.3 hPa | 0 mm | - | 0 W/m² | - |
| 1777977056 | 22.22° C | 79% | 1002.3 hPa | 0 mm | - | 0 W/m² | - |
| 1777976753 | 22.22° C | 79% | 1002.4 hPa | 0 mm | - | 0 W/m² | - |
* Rain latest hour (hover to see other rain measurements)
** Current wind speed in m/s (hover to see current wind gust speed)